User: anonymous   Login
Location: C.E.K. Mees Observatory
(42.7003°N, 77.4088°W)
Time: 09:41:47
(UTC-04:00)
Language:

Envisat - Orbit

View from above orbital plane
View from above orbital plane
View from above satellite
View from above satellite

Ground track
Ground track

The orbit data is extracted from the following two-line orbital elements,

1 27386U 02009A   18113.11651721 -.00000016  00000-0  84165-5 0  9992
2 27386  98.1903 149.7556 0001413  91.1808 286.7124 14.37920193845614
Epoch (UTC): 23 April 2018 02:47:47
Eccentricity: 0.0001413
inclination: 98.1903°
perigee height: 764 km
apogee height: 766 km
right ascension of ascending node: 149.7556°
argument of perigee: 91.1808°
revolutions per day: 14.37920193
mean anomaly at epoch: 286.7124°
orbit number at epoch: 84561

The dashed part of the orbit path shows where the satellite is in the earth's shadow,  

DLR